[[{"header":{"parameterUnit":"m.s-1","parameterCategory":1,"la1":30.2991,"la2":30.254,"lo1":-89.0895,"lo2":-89.0444,"dy":0.0017,"dx":0.0017,"nx":28,"ny":28,"refTime":"2025-06-05T03:00:00:Z","depth":0,"parameterNumber":2,"parameterNumberName":"U-component_of_WINDS"},"data":[0,0,0,0,0,0,0,0,0,0,0,0,0,0,0,0,0,0,0,0,0,0,0,0,0,0,0,0,0,0,0,0,0,0,0,0,0,0,0,0,0,0,0,0,0,0,0,0,0,0,0,0,0,0,0,0,0,0,3.0262,3.0263,0,3.0398,3.0399,3.0401,3.0399,3.0397,3.0396,3.0394,3.0535,3.054,3.0546,0,0,0,0,0,0,0,0,0,0,0,0,0,3.0001,3.0005,3.0261,3.0263,3.0265,3.0398,3.0399,3.0401,3.04,3.0397,3.0395,3.0393,3.0533,3.054,3.0546,0,0,0,0,0,0,0,0,0,0,0,0,0,3.0123,3.0007,3.0261,3.028,3.0283,3.0397,3.0399,3.0402,3.04,3.0397,3.0395,3.0392,3.0531,3.0539,3.0547,3.0652,0,0,3.0572,3.0575,0,0,0,0,0,0,0,0,3.0116,3.0133,3.0276,3.0279,3.0283,3.0379,3.0359,3.0486,3.0401,3.0356,3.0394,3.0391,3.0485,3.0497,3.0529,3.0658,3.0664,3.0573,3.0578,3.0581,3.0583,0,0,0,0,0,0,0,3.0108,3.0127,3.0315,3.0278,3.0282,3.0282,3.0296,3.0383,3.0434,3.0359,3.036,3.0376,3.0487,3.0521,3.0532,3.0666,3.0572,3.058,3.0585,3.0588,3.0888,3.0891,0,0,0,0,0,0,3.0095,3.012,3.0311,3.0319,3.0191,3.0289,3.0305,3.0351,3.0433,3.0443,3.0378,3.0375,3.0508,3.0522,3.0537,3.0664,3.0581,3.0589,3.0593,3.0885,3.0889,3.0892,0,0,0,0,0,0,3.009,3.0112,3.0306,3.022,3.0244,3.0296,3.0348,3.0355,3.0389,3.0447,3.0456,3.0403,3.0506,3.0525,3.0623,3.0669,3.0592,3.06,3.0882,3.0886,3.0891,3.092,0,0,0,0,0,0,3.0082,3.011,3.015,3.0221,3.0249,3.0389,3.035,3.0359,3.0403,3.04,3.0473,3.0483,3.0506,3.0611,3.0631,3.0679,3.0606,3.0878,3.0884,3.0889,3.0915,3.0925,3.0933,0,0,0,0,0,3.0073,3.0154,3.0152,3.0176,3.03,3.0392,3.0408,3.0432,3.0406,3.0447,3.0485,3.048,3.0661,3.0621,3.0644,3.0695,3.0875,3.0882,3.0889,3.0911,3.0923,3.0933,0,0,0,0,0,0,3.0088,3.0163,3.0163,3.0269,3.0324,3.0391,3.0444,3.0445,3.0509,3.0504,3.0532,3.0549,3.0646,3.068,3.0634,3.08,3.0765,3.0777,3.0774,3.0786,3.0795,3.0784,3.0613,0,0,0,0,0,3.0104,3.0172,3.0234,3.0321,3.0349,3.0392,3.0432,3.0446,3.0505,3.0528,3.0573,3.063,3.0699,3.0745,3.0812,3.092,3.0936,3.0967,3.0976,3.0983,3.0993,3.1052,3.1066,3.0915,3.0915,3.0915,0,0,3.0137,3.0186,3.0228,3.0326,3.037,3.044,3.0411,3.0486,3.0538,3.054,3.0634,3.0669,3.0735,3.0838,3.0886,3.087,3.1038,3.0992,3.0997,3.1003,3.106,3.1075,3.1087,3.092,3.0919,3.0918,0,0,3.0232,3.0277,3.0354,3.0399,3.0466,3.0494,3.0513,3.058,3.0603,3.0698,3.0701,3.0763,3.0883,3.0929,3.0968,3.1081,3.1079,3.1102,3.115,3.1207,3.1219,3.123,3.1269,3.1283,3.1112,3.1112,3.1112,0,3.0265,3.037,3.0394,3.0469,3.0512,3.0516,3.0595,3.0637,3.0723,3.0753,3.0734,3.0883,3.0928,3.1041,3.1068,3.1101,3.1122,3.1094,3.1215,3.1226,3.1237,3.1274,3.1289,3.1114,3.1114,3.1114,3.1114,0,3.0406,3.0479,3.0533,3.0615,3.0664,3.0741,3.0777,3.0824,3.0834,3.0863,3.096,3.1014,3.1091,3.112,3.113,3.1235,3.1223,3.1209,3.1174,3.1253,3.1289,3.1303,3.1118,3.1117,3.1116,3.1115,0,0,3.0515,3.0609,3.0628,3.0665,3.074,3.0796,3.0873,3.0949,3.0988,3.1047,3.1112,3.1213,3.12,3.1245,3.1261,3.1311,3.1396,3.1292,3.1294,3.1308,3.1513,3.1522,3.1538,3.1396,3.1399,3.1401,3.1507,0,3.0617,3.0752,3.0776,3.0895,3.0962,3.0967,3.1034,3.1086,3.1116,3.1178,3.1211,3.1282,3.1261,3.1288,3.1338,3.1375,3.1437,3.1368,3.1456,3.1459,3.1438,3.1557,3.1567,3.1665,3.1522,3.1524,3.1526,0,3.0755,3.0817,3.0941,3.1006,3.1035,3.1094,3.1165,3.1224,3.1284,3.1302,3.1352,3.1362,3.1442,3.1404,3.1514,3.1466,3.1504,3.1527,3.1532,3.154,3.1496,3.1568,3.1697,3.1711,3.1549,3.1547,3.1545,0,3.082,3.0935,3.1024,3.1055,3.1134,3.1175,3.121,3.1267,3.1311,3.1373,3.1401,3.1472,3.1511,3.1566,3.1595,3.1564,3.1702,3.1667,3.1719,3.1719,3.1747,3.1745,3.1883,3.1773,3.1773,3.1773,3.1773,0,3.0931,3.1007,3.1054,3.1109,3.1194,3.1221,3.1304,3.1338,3.1389,3.1451,3.146,3.1518,3.1553,3.1616,3.1639,3.1726,3.1744,3.1761,3.1766,3.1759,3.1757,3.1783,3.1777,3.1777,3.1776,3.1775,3.1775,0,3.1018,3.1052,3.115,3.1215,3.1234,3.1293,3.135,3.1403,3.1433,3.1511,3.153,3.1578,3.1652,3.1686,3.1779,3.1794,3.1893,3.1894,3.1872,3.1874,3.1924,3.1918,3.2083,3.2105,3.1982,3.1983,3.1984,0,3.1086,3.1144,3.1216,3.1257,3.1293,3.136,3.1404,3.1433,3.1479,3.1552,3.1596,3.1671,3.1732,3.185,3.1893,3.1963,3.1965,3.2018,3.1976,3.1967,3.1965,3.196,3.1966,3.2025,3.2027,3.2028,3.2028,0,3.1202,3.1217,3.128,3.1349,3.1401,3.1458,3.1513,3.1546,3.1584,3.1635,3.1711,3.1758,3.1852,3.1925,3.1999,3.2035,3.2038,3.2042,3.2057,3.205,3.2035,3.2042,3.1892,3.2037,3.2036,3.2036,3.2035,3.2035,3.1281,3.1333,3.1391,3.1461,3.1505,3.1557,3.161,3.1646,3.1709,3.1787,3.1801,3.1881,3.194,3.2038,3.2077,3.214,3.2128,3.2151,3.2156,3.2161,3.2163,3.2026,3.2154,3.2154,3.2153,3.2153,3.2153,0,3.1397,3.1435,3.1499,3.1575,3.163,3.1628,3.1689,3.1735,3.1806,3.186,3.1919,3.2006,3.2077,3.2126,3.2198,3.2239,3.2242,3.2257,3.2254,3.2262,3.2171,3.2149,3.2253,3.2253,3.2253,3.2253,3.2253,3.2253,3.1464,3.1551,3.1572,3.1681,3.1718,3.1796,3.1831,3.1878,3.1921,3.2017,3.2076,3.2107,3.2159,3.2235,3.23,3.2313,3.2338,3.2353,3.2365,3.2279,3.2268,3.2258,3.2238,3.2359,3.2359,3.2451,3.2451,3.2452]},{"header":{"parameterUnit":"m.s-1","parameterCategory":1,"la1":30.2991,"la2":30.254,"lo1":-89.0895,"lo2":-89.0444,"dy":0.0017,"dx":0.0017,"nx":28,"ny":28,"refTime":"2025-06-05T03:00:00:Z","depth":0,"parameterNumber":3,"parameterNumberName":"V-component_of_WINDS"},"data":[0,0,0,0,0,0,0,0,0,0,0,0,0,0,0,0,0,0,0,0,0,0,0,0,0,0,0,0,0,0,0,0,0,0,0,0,0,0,0,0,0,0,0,0,0,0,0,0,0,0,0,0,0,0,0,0,0,0,1.2299,1.23,0,1.2339,1.2339,1.234,1.234,1.234,1.2339,1.2339,1.2379,1.2381,1.2382,0,0,0,0,0,0,0,0,0,0,0,0,0,1.2224,1.2225,1.2299,1.23,1.23,1.2339,1.2339,1.234,1.234,1.234,1.2339,1.2338,1.2379,1.2381,1.2383,0,0,0,0,0,0,0,0,0,0,0,0,0,1.2259,1.2226,1.2299,1.2305,1.2306,1.2339,1.2339,1.234,1.234,1.234,1.2339,1.2338,1.2378,1.2381,1.2383,1.2413,0,0,1.239,1.2391,0,0,0,0,0,0,0,0,1.2257,1.2262,1.2304,1.2305,1.2306,1.2334,1.2328,1.2364,1.234,1.2327,1.2339,1.2338,1.2365,1.2368,1.2377,1.2415,1.2416,1.239,1.2392,1.2393,1.2393,0,0,0,0,0,0,0,1.2255,1.226,1.2315,1.2304,1.2306,1.2306,1.231,1.2335,1.235,1.2328,1.2328,1.2333,1.2365,1.2375,1.2378,1.2417,1.239,1.2392,1.2394,1.2395,1.2481,1.2481,0,0,0,0,0,0,1.2251,1.2258,1.2314,1.2316,1.2279,1.2308,1.2312,1.2326,1.235,1.2352,1.2334,1.2333,1.2371,1.2376,1.238,1.2416,1.2393,1.2395,1.2396,1.248,1.2481,1.2482,0,0,0,0,0,0,1.225,1.2256,1.2312,1.2287,1.2294,1.231,1.2325,1.2327,1.2337,1.2354,1.2356,1.2341,1.2371,1.2376,1.2404,1.2418,1.2396,1.2398,1.2479,1.248,1.2481,1.249,0,0,0,0,0,0,1.2247,1.2256,1.2267,1.2288,1.2296,1.2336,1.2325,1.2328,1.2341,1.234,1.2361,1.2364,1.2371,1.2401,1.2407,1.2421,1.24,1.2478,1.2479,1.2481,1.2488,1.2491,1.2493,0,0,0,0,0,1.2245,1.2268,1.2268,1.2274,1.231,1.2337,1.2342,1.2349,1.2342,1.2353,1.2364,1.2363,1.2415,1.2404,1.241,1.2425,1.2477,1.2479,1.2481,1.2487,1.249,1.2493,0,0,0,0,0,0,1.2248,1.2271,1.2271,1.2301,1.2317,1.2337,1.2352,1.2352,1.2371,1.237,1.2378,1.2383,1.2411,1.2421,1.2407,1.2455,1.2445,1.2449,1.2448,1.2451,1.2454,1.2451,1.2402,0,0,0,0,0,1.2253,1.2272,1.2291,1.2316,1.2324,1.2336,1.2348,1.2353,1.237,1.2376,1.2389,1.2406,1.2426,1.2439,1.2458,1.249,1.2494,1.2503,1.2505,1.2508,1.251,1.2528,1.2532,1.2488,1.2488,1.2488,0,0,1.2262,1.2276,1.2288,1.2317,1.233,1.235,1.2342,1.2364,1.2379,1.238,1.2407,1.2417,1.2436,1.2466,1.248,1.2475,1.2523,1.251,1.2512,1.2513,1.253,1.2534,1.2538,1.249,1.2489,1.2489,0,0,1.2289,1.2302,1.2324,1.2337,1.2357,1.2365,1.2371,1.2391,1.2397,1.2425,1.2426,1.2444,1.2478,1.2492,1.2503,1.2535,1.2535,1.2541,1.2555,1.2572,1.2575,1.2578,1.259,1.2594,1.2544,1.2544,1.2544,0,1.2298,1.2328,1.2336,1.2358,1.237,1.2372,1.2394,1.2407,1.2432,1.244,1.2435,1.2478,1.2491,1.2524,1.2532,1.2541,1.2547,1.2539,1.2574,1.2577,1.258,1.2592,1.2596,1.2545,1.2545,1.2545,1.2545,0,1.2339,1.236,1.2375,1.2399,1.2414,1.2436,1.2446,1.246,1.2463,1.2472,1.25,1.2515,1.2538,1.2546,1.2549,1.258,1.2576,1.2572,1.2563,1.2585,1.2596,1.26,1.2546,1.2546,1.2545,1.2545,0,0,1.2369,1.2397,1.2403,1.2414,1.2435,1.2452,1.2474,1.2496,1.2508,1.2525,1.2544,1.2573,1.2569,1.2582,1.2587,1.2602,1.2626,1.2596,1.2597,1.2601,1.2661,1.2664,1.2668,1.2626,1.2627,1.2628,1.2659,0,1.2399,1.2438,1.2445,1.248,1.2499,1.2501,1.252,1.2536,1.2545,1.2563,1.2572,1.2593,1.2587,1.2595,1.2609,1.262,1.2639,1.2618,1.2644,1.2645,1.2639,1.2674,1.2677,1.2706,1.2663,1.2664,1.2665,0,1.2438,1.2456,1.2493,1.2512,1.252,1.2538,1.2558,1.2576,1.2593,1.2599,1.2613,1.2616,1.264,1.2628,1.2661,1.2647,1.2658,1.2665,1.2666,1.2669,1.2656,1.2678,1.2715,1.272,1.2671,1.2671,1.267,0,1.2457,1.249,1.2516,1.2526,1.2549,1.2561,1.2571,1.2588,1.2601,1.2619,1.2628,1.2648,1.266,1.2676,1.2684,1.2676,1.2716,1.2706,1.2721,1.2721,1.273,1.2729,1.277,1.2737,1.2737,1.2737,1.2737,0,1.2489,1.2511,1.2525,1.2541,1.2566,1.2574,1.2599,1.2609,1.2624,1.2642,1.2645,1.2662,1.2672,1.2691,1.2697,1.2723,1.2728,1.2733,1.2735,1.2733,1.2733,1.2741,1.2739,1.2738,1.2738,1.2737,1.2737,0,1.2514,1.2524,1.2553,1.2572,1.2578,1.2595,1.2612,1.2628,1.2637,1.2659,1.2665,1.2679,1.2701,1.2711,1.2739,1.2743,1.2772,1.2773,1.2766,1.2767,1.2782,1.2781,1.2829,1.2836,1.2799,1.2799,1.2799,0,1.2534,1.2551,1.2572,1.2585,1.2595,1.2615,1.2628,1.2637,1.265,1.2672,1.2685,1.2707,1.2725,1.276,1.2772,1.2793,1.2794,1.281,1.2797,1.2795,1.2794,1.2793,1.2795,1.2812,1.2812,1.2813,1.2813,0,1.2568,1.2572,1.2591,1.2611,1.2627,1.2644,1.266,1.267,1.2681,1.2696,1.2719,1.2733,1.276,1.2782,1.2804,1.2815,1.2816,1.2817,1.2821,1.282,1.2815,1.2818,1.2773,1.2815,1.2815,1.2815,1.2815,1.2815,1.2591,1.2606,1.2624,1.2644,1.2658,1.2673,1.2689,1.2699,1.2718,1.2741,1.2745,1.2769,1.2787,1.2816,1.2827,1.2846,1.2843,1.2849,1.2851,1.2853,1.2854,1.2812,1.285,1.285,1.285,1.285,1.285,0,1.2625,1.2636,1.2655,1.2678,1.2695,1.2694,1.2712,1.2726,1.2747,1.2763,1.2781,1.2807,1.2828,1.2842,1.2864,1.2876,1.2877,1.2882,1.2881,1.2883,1.2856,1.2849,1.288,1.288,1.288,1.288,1.288,1.288,1.2645,1.2671,1.2677,1.2709,1.2721,1.2744,1.2754,1.2769,1.2781,1.281,1.2828,1.2837,1.2852,1.2875,1.2895,1.2898,1.2906,1.2911,1.2914,1.2888,1.2885,1.2882,1.2876,1.2912,1.2912,1.294,1.2941,1.2941]}]]